Date String (YYYY-MM-DD hh:mm:ss) UTC,Instrument flags,absolute air pressure of the measurement (hPa),sample flow rate (lpm),inlet stack bypass flow (lpm),air temperature of the measurement (°C),ambient temperature measured by the external sensor (°C),aerosol sample conditioner tube jacket temperature (°C),OPC LED temperature (°C),internal box temperature (°C),relative humidity of the measurement (%),span deviation,mass concentration of particles derived from Lorenz-Mie calculation of OPC scattering (μg/m³),mass concentration of particles derived from Lorenz-Mie calculation of OPC scattering (μg/m³),mass concentration of particles derived from Lorenz-Mie calculation of OPC scattering (μg/m³)
DateTimeUTC,F1_M11,P_M11,Q1_M11,Q2_M11,T1_M11,T2_M11,T3_M11,T4_M11,T5_M11,U1_M11,ZSPAN_M11,X2_M11,X0_M11,X1_M11
2023-07-21 06:00:00,SystemResetWarning,0839.9,5.00,000.00,030.8,028.8,000.0,039.1,031.7,33.5,0000.0,0002.39,0003.82,0002.02
2023-07-21 06:01:00,SystemResetWarning,0840.0,5.00,000.00,030.8,028.8,000.0,039.1,031.8,33.5,0000.0,0002.38,0003.73,0002.03
2023-07-21 06:02:00,SystemResetWarning,0839.9,5.01,000.00,030.8,028.8,000.0,039.1,031.8,33.5,0000.0,0002.39,0004.07,0002.07
2023-07-21 06:03:00,SystemResetWarning,0839.9,5.00,000.00,030.8,028.8,000.0,039.1,031.8,33.4,0000.0,0002.39,0005.46,0002.09
2023-07-21 06:04:00,SystemResetWarning,0839.9,4.99,000.00,030.8,028.5,000.0,039.1,031.8,33.5,0000.0,0002.40,0005.44,0002.11
2023-07-21 06:05:00,SystemResetWarning,0839.9,5.00,000.00,030.7,026.6,000.0,038.9,031.6,33.6,0000.0,0002.48,0005.57,0002.14
2023-07-21 06:06:00,SystemResetWarning,0839.9,5.00,000.00,030.6,025.5,000.0,038.8,031.4,33.8,0000.0,0002.49,0005.58,0002.16
2023-07-21 06:07:00,SystemResetWarning,0839.9,5.00,000.00,030.4,025.4,000.0,038.8,031.1,34.1,0000.0,0002.51,0005.57,0002.19
2023-07-21 06:08:00,SystemResetWarning,0839.9,5.01,000.00,030.3,025.8,000.0,038.8,031.0,34.4,0000.0,0002.55,0005.55,0002.22
2023-07-21 06:09:00,SystemResetWarning,0839.9,5.00,000.00,030.2,026.2,000.0,038.8,031.0,34.6,0000.0,0002.55,0005.54,0002.24
2023-07-21 06:10:00,SystemResetWarning,0839.9,5.00,000.00,030.2,026.6,000.0,038.8,031.1,34.6,0000.0,0002.60,0005.38,0002.25
2023-07-21 06:11:00,SystemResetWarning,0839.9,5.01,000.00,030.2,026.9,000.0,038.7,031.2,34.7,0000.0,0002.61,0005.49,0002.27
2023-07-21 06:12:00,SystemResetWarning,0839.9,4.99,000.00,030.1,027.2,000.0,038.7,031.2,34.7,0000.0,0002.65,0005.58,0002.30
2023-07-21 06:13:00,SystemResetWarning,0839.9,4.99,000.00,030.1,027.5,000.0,038.7,031.3,34.7,0000.0,0002.67,0005.37,0002.30
2023-07-21 06:14:00,SystemResetWarning,0839.9,5.00,000.00,030.1,027.7,000.0,038.7,031.3,34.9,0000.0,0002.68,0004.37,0002.30
2023-07-21 06:15:00,SystemResetWarning,0839.9,5.00,000.00,030.1,027.9,000.0,038.7,031.3,34.8,0000.0,0002.72,0003.87,0002.33
2023-07-21 06:16:00,SystemResetWarning,0839.9,5.00,000.00,030.1,028.0,000.0,038.7,031.4,34.8,0000.0,0002.75,0003.99,0002.36
2023-07-21 06:17:00,SystemResetWarning,0839.9,5.01,000.00,030.1,028.2,000.0,038.6,031.4,34.8,0000.0,0002.79,0004.09,0002.39
2023-07-21 06:18:00,SystemResetWarning,0839.9,5.00,000.00,030.1,028.3,000.0,038.6,031.4,34.7,0000.0,0002.79,0004.07,0002.40
2023-07-21 06:19:00,SystemResetWarning,0839.9,5.00,000.00,030.2,028.3,000.0,038.6,031.5,34.6,0000.0,0002.79,0004.04,0002.41
2023-07-21 06:20:00,SystemResetWarning,0839.9,5.00,000.00,030.2,028.4,000.0,038.6,031.5,34.7,0000.0,0002.82,0004.08,0002.43
2023-07-21 06:21:00,SystemResetWarning,0839.8,5.00,000.00,030.2,028.5,000.0,038.6,031.5,34.7,0000.0,0002.83,0004.74,0002.46
2023-07-21 06:22:00,SystemResetWarning,0839.8,5.00,000.00,030.2,028.5,000.0,038.6,031.5,34.7,0000.0,0002.84,0004.66,0002.49
2023-07-21 06:23:00,SystemResetWarning,0839.7,4.99,000.00,030.2,028.6,000.0,038.6,031.6,34.8,0000.0,0002.83,0004.61,0002.50
2023-07-21 06:24:00,SystemResetWarning,0839.8,4.99,000.00,030.2,028.6,000.0,038.7,031.6,34.8,0000.0,0002.82,0004.55,0002.51
2023-07-21 06:25:00,SystemResetWarning,0839.8,5.00,000.00,030.2,028.7,000.0,038.7,031.6,34.7,0000.0,0002.84,0004.59,0002.54
2023-07-21 06:26:00,SystemResetWarning,0839.8,5.00,000.00,030.2,028.7,000.0,038.7,031.6,34.8,0000.0,0002.83,0004.48,0002.54
2023-07-21 06:27:00,SystemResetWarning,0839.8,5.00,000.00,030.2,028.7,000.0,038.7,031.6,34.8,0000.0,0002.83,0004.66,0002.55
2023-07-21 06:28:00,SystemResetWarning,0839.8,5.00,000.00,030.3,028.8,000.0,038.7,031.7,34.8,0000.0,0002.80,0004.82,0002.54
2023-07-21 06:29:00,SystemResetWarning,0839.8,5.01,000.00,030.3,028.8,000.0,038.7,031.7,34.8,0000.0,0002.86,0005.01,0002.55
2023-07-21 06:30:00,SystemResetWarning,0839.8,5.00,000.00,030.3,028.6,000.0,038.7,031.7,34.7,0000.0,0002.92,0005.54,0002.56
2023-07-21 06:31:00,SystemResetWarning,0839.8,4.98,000.00,030.3,026.9,000.0,038.6,031.5,34.6,0000.0,0002.92,0005.51,0002.57
2023-07-21 06:32:00,SystemResetWarning,0839.7,5.02,000.00,030.2,025.6,000.0,038.4,031.3,34.8,0000.0,0002.95,0005.05,0002.59
2023-07-21 06:33:00,SystemResetWarning,0839.7,5.00,000.00,030.0,025.4,000.0,038.4,030.9,35.2,0000.0,0002.97,0004.83,0002.62
2023-07-21 06:34:00,SystemResetWarning,0839.7,5.02,000.00,030.1,025.7,000.0,038.4,030.9,35.2,0000.0,0003.00,0004.86,0002.64
2023-07-21 06:35:00,SystemResetWarning,0839.7,4.99,000.00,030.3,026.1,000.0,038.4,031.1,34.8,0000.0,0003.03,0004.83,0002.68
2023-07-21 06:36:00,SystemResetWarning,0839.7,4.99,000.00,030.5,026.5,000.0,038.5,031.2,34.3,0000.0,0003.05,0004.85,0002.69
2023-07-21 06:37:00,SystemResetWarning,0839.7,5.01,000.00,030.6,026.9,000.0,038.5,031.3,34.0,0000.0,0003.08,0004.93,0002.72
2023-07-21 06:38:00,SystemResetWarning,0839.7,5.01,000.00,030.7,027.2,000.0,038.5,031.3,33.8,0000.0,0003.10,0004.73,0002.74
2023-07-21 06:39:00,SystemResetWarning,0839.7,5.01,000.00,030.7,027.5,000.0,038.6,031.3,33.7,0000.0,0003.11,0004.54,0002.76
2023-07-21 06:40:00,SystemResetWarning,0839.7,5.00,000.00,030.8,027.7,000.0,038.6,031.4,33.6,0000.0,0003.12,0004.54,0002.79
2023-07-21 06:41:00,SystemResetWarning,0839.7,5.00,000.00,030.8,027.9,000.0,038.7,031.4,33.5,0000.0,0003.12,0004.21,0002.82
2023-07-21 06:42:00,SystemResetWarning,0839.7,5.00,000.00,030.8,028.0,000.0,038.8,031.4,33.5,0000.0,0003.16,0004.30,0002.85
2023-07-21 06:43:00,SystemResetWarning,0839.7,5.00,000.00,030.8,028.1,000.0,038.8,031.5,33.5,0000.0,0003.18,0004.33,0002.89
2023-07-21 06:44:00,SystemResetWarning,0839.8,5.00,000.00,030.8,028.2,000.0,038.9,031.5,33.6,0000.0,0003.23,0005.02,0002.93
2023-07-21 06:45:00,SystemResetWarning,0839.8,5.00,000.00,030.8,028.3,000.0,038.9,031.5,33.5,0000.0,0003.28,0005.19,0003.00
2023-07-21 06:46:00,SystemResetWarning,0839.8,5.00,000.00,030.8,028.4,000.0,038.9,031.6,33.5,0000.0,0003.30,0005.20,0003.06
2023-07-21 06:47:00,SystemResetWarning,0839.8,5.00,000.00,030.8,028.5,000.0,038.9,031.6,33.5,0000.0,0003.32,0005.17,0003.10
2023-07-21 06:48:00,SystemResetWarning,0839.8,5.00,000.00,030.8,028.5,000.0,039.0,031.6,33.5,0000.0,0003.34,0005.26,0003.13
2023-07-21 06:49:00,SystemResetWarning,0839.8,4.99,000.00,030.8,028.6,000.0,039.0,031.7,33.4,0000.0,0003.37,0005.49,0003.15
2023-07-21 06:50:00,SystemResetWarning,0839.8,5.00,000.00,030.8,028.6,000.0,039.0,031.7,33.3,0000.0,0003.40,0006.48,0003.17
2023-07-21 06:51:00,SystemResetWarning,0839.9,5.00,000.00,030.8,028.7,000.0,039.0,031.7,33.2,0000.0,0003.42,0006.62,0003.20
2023-07-21 06:52:00,SystemResetWarning,0839.9,5.00,000.00,030.8,028.7,000.0,039.0,031.8,33.2,0000.0,0003.43,0006.56,0003.22
2023-07-21 06:53:00,SystemResetWarning,0839.9,5.00,000.00,030.8,028.8,000.0,039.1,031.8,33.4,0000.0,0003.43,0006.42,0003.24
2023-07-21 06:54:00,SystemResetWarning,0839.9,5.00,000.00,030.8,028.8,000.0,039.1,031.8,33.5,0000.0,0003.42,0006.38,0003.25
2023-07-21 06:55:00,SystemResetWarning,0839.9,5.00,000.00,030.8,028.8,000.0,039.1,031.8,33.6,0000.0,0003.42,0005.93,0003.26
2023-07-21 06:56:00,SystemResetWarning,0839.8,5.01,000.00,030.8,028.8,000.0,039.1,031.8,33.6,0000.0,0003.42,0005.97,0003.27
2023-07-21 06:57:00,SystemResetWarning,0839.8,5.00,000.00,030.8,028.8,000.0,039.1,031.9,33.7,0000.0,0003.44,0006.18,0003.27
2023-07-21 06:58:00,SystemResetWarning,0839.8,4.99,000.00,030.8,027.3,000.0,039.0,031.7,33.6,0000.0,0003.45,0006.26,0003.27
2023-07-21 06:59:00,SystemResetWarning,0839.8,5.01,000.00,030.7,025.8,000.0,038.8,031.4,33.7,0000.1,0003.48,0006.45,0003.28
